SCP
0 0 0 0 0 0 0 0 0 0 0 0 0 0 0 0 0 0 0 0 0 0 0 0 0 0 0 0 0 0 0 0 0 0 0 0 0 0 0 0 0 0 0
0 0 0 0 0 0 0 0 0 0 0 0 0 0 0 0 0 0 0 0 0 0 0 0 0 0 0 0 0 0 0 0 0 0 0 0 0 0 0 0 0 0 0
0 0 0 0 0 0 0 0 0 0 0 0 0 0 0 0 0 0 0 0 0 0 0 0 0 0 0 0 0 0 0 0 0 0 0 0 0 0 0 0 0 0 0
0 0 0 0 0 0 0 0 0 0 0 0 0 0 0 0 0 0 0 0 0 0 0 0 0 0 0 0 0 0 0 0 0 0 0 0 0 0 0 0 0 0 0
0 0 0 0 0 0 0 0 0 0 0 0 0 0 0 0 0 0 0 0 0 0 0 0 0 0 0 0 0 0 0 0 0 0 0 0 0 0 0 0 0 0 0
0 0 0 0 0 0 0 0 0 0 0 0 0 0 0 0 0 0 0 0 0 0 0 0 0 0 0 0 0 0 0 0 0 0 0 0 0 0 0 0 0 0 0
0 0 0 0 0 0 0 0 0 0 0 0 0 0 0 0 0 0 0 0 0 0 0 0 0 0 0 0 0 0 0 0 0 0 0 0 0 0 0 0 0 0 0
0 0 0 0 0 0 0 0 0 0 0 0 0 0 0 0 0 0 0 0 0 0 0 0 0 0 0 0 0 0 0 0 0 0 0 0 0 0 0 0 0 0 0
0 0 0 0 0 0 0 0 0 0 0 0 0 0 0 0 0 0 0 0 0 0 0 0 0 0 0 0 0 0 0 0 0 0 0 0 0 0 0 0 0 0 0
0 0 0 0 0 0 0 0 0 0 0 0 0 0 0 0 0 0 0 0 0 0 0 0 0 0 0 0 0 0 0 0 0 0 0 0 0 0 0 0 0 0 0
0 0 0 0 0 0 0 0 0 0 0 0 0 0 0 0 0 0 0 0 0 0 0 0 0 0 0 0 0 0 0 0 0 0 0 0 0 0 0 0 0 0 0
0 0 0 0 0 0 0 0 0 0 0 0 0 0 0 0 0 0 0 0 0 0 0 0 0 0 0 0 0 0 0 0 0 0 0 0 0 0 0 0 0 0 0
0 0 0 0 0 0 0 0 0 0 0 0 0 0 0 0 0 0 0 0 0 0 0 0 0 0 0 0 0 0 0 0 0 0 0 0 0 0 0 0 0 0 0
0 0 0 0 0 0 0 0 0 0 0 0 0 0 0 0 0 0 0 0 0 0 0 0 0 0 0 0 0 0 0 0 0 0 0 0 0 0 0 0 0 0 0
0 0 0 0 0 0 0 0 0 0 0 0 0 0 0 0 0 0 0 0 0 0 0 0 0 0 0 0 0 0 0 0 0 0 0 0 0 0 0 0 0 0 0
0 0 0 0 0 0 0 0 0 0 0 0 0 0 0 0 0 0 0 0 0 0 0 0 0 0 0 0 0 0 0 0 0 0 0 0 0 0 0 0 0 0 0
0 0 0 0 0 0 0 0 0 0 0 0 0 0 0 0 0 0 0 0 0 0 0 0 0 0 0 0 0 0 0 0 0 0 0 0 0 0 0 0 0 0 0
0 0 0 0 0 0 0 0 0 0 0 0 0 0 0 0 0 0 0 0 0 0 0 0 0 0 0 0 0 0 0 0 0 0 0 0 0 0 0 0 0 0 0
0 0 0 0 0 0 0 0 0 0 0 0 0 0 0 0 0 0 0 0 0 0 0 0 0 0 0 0 0 0 0 0 0 0 0 0 0 0 0 0 0 0 0
0 0 0 0 0 0 0 0 0 0 0 0 0 0 0 0 0 0 0 0 0 0 0 0 0 0 0 0 0 0 0 0 0 0 0 0 0 0 0 0 0 0 0
0 0 0 0 0 0 0 0 0 0 0 0 0 0 0 0 0 0 0 0 0 0 0 0 0 0 0 0 0 0 0 0 0 0 0 0 0 0 0 0 0 0 -0
0 0 0 0 0 0 0 0 0 0 0 0 0 0 0 0 0 0 0 0 0 0 0 0 0 0 0 0 0 0 0 0 0 0 0 0 0 0 0 0 0 0 -0
0 0 0 0 0 0 0 0 0 0 0 0 0 0 0 0 0 0 0 0 0 0 0 0 0 0 0 0 0 0 0 0 0 0 0 0 0 0 0 0 0 0 -0
0 0 0 0 0 0 0 0 0 0 0 0 0 0 0 0 0 0 0 0 0 0 0 0 0 0 0 0 0 0 0 0 0 0 0 0 0 0 0 0 0 0 0
0 0 0 0 0 0 0 0 0 0 0 0 0 0 0 0 0 0 0 0 0 0 0 0 0 0 0 0 0 0 0 0 0 0 0 0 0 0 0 0 0 0 0
0 0 0 0 0 0 0 0 0 0 0 0 0 0 0 0 0 0 0 0 0 0 0 0 0 0 0 0 0 0 0 0 0 0 0 0 0 0 0 0 0 0 0
Wind_Speed
4 6 8 9 9 9 9 10 11 9 5 4 3 2 1 1 1 2 3 4 4 4 3 4 5 5 5 7 7 7 8 8 6 6 8 9 10 11 12 11 12 13 15
6 8 9 9 9 9 10 12 12 11 8 4 3 2 3 3 3 4 7 8 7 6 4 4 4 5 5 6 7 7 6 6 4 4 6 7 5 8 10 10 11 13 12
6 5 7 8 8 10 10 10 11 12 11 8 5 5 5 4 5 6 6 7 8 8 8 7 6 6 5 5 7 6 7 8 6 5 7 8 7 5 5 8 10 11 10
4 5 6 7 8 7 7 9 10 12 11 10 11 11 8 6 5 3 4 6 7 8 9 8 7 7 6 6 6 6 6 7 7 6 5 8 9 10 8 5 6 8 10
5 6 6 6 6 6 7 8 10 12 11 11 10 9 8 4 3 4 7 7 7 8 9 9 8 7 6 7 7 7 7 5 5 6 7 8 8 8 11 13 7 6 6
5 5 5 7 7 7 7 7 11 11 10 11 10 10 9 8 9 9 9 7 5 6 9 9 8 7 7 7 7 7 8 7 7 6 6 6 6 8 8 12 13 11 8
5 6 6 7 7 7 7 7 10 10 9 10 11 10 9 8 9 7 7 8 7 5 9 9 8 8 8 8 8 8 8 8 8 8 7 6 7 7 8 10 12 13 10
5 6 6 6 7 7 7 8 9 9 8 9 9 8 8 6 5 6 6 6 5 5 8 9 9 9 10 10 9 7 8 8 8 9 8 7 7 7 8 8 10 13 12
6 6 6 6 7 7 6 6 8 9 8 7 7 7 7 6 6 5 5 4 5 6 8 8 9 9 10 10 10 8 10 10 8 8 8 8 8 8 7 7 7 9 14
6 6 6 6 6 6 6 6 8 8 7 7 6 6 6 6 6 5 7 7 7 7 8 8 9 10 10 11 10 9 10 11 8 8 11 10 9 9 7 6 7 7 9
8 7 6 6 6 6 6 7 7 7 6 6 6 6 6 6 6 6 6 7 7 8 8 9 10 11 11 11 11 11 11 12 11 10 12 14 13 8 8 7 7 8 7
6 7 7 6 6 6 6 6 6 6 5 5 6 6 6 6 6 7 7 7 7 7 8 9 9 10 11 10 11 11 11 11 12 12 12 13 11 9 9 8 10 9 7
7 7 6 6 6 5 5 6 5 5 5 5 5 5 6 6 7 7 7 7 8 9 9 9 10 10 11 11 9 9 11 10 10 9 11 13 12 10 9 11 11 8 8
8 7 6 5 5 5 5 5 4 4 4 5 5 5 6 6 6 7 7 7 8 8 9 10 10 10 12 11 11 13 12 11 9 8 10 11 11 13 13 12 10 9 10
7 7 7 6 5 5 4 4 4 4 4 4 4 4 5 5 6 6 7 7 7 10 9 11 11 11 11 11 16 15 14 13 11 10 9 11 18 22 18 16 14 13 12
8 8 7 7 6 5 4 3 3 3 3 3 3 4 5 6 6 7 7 8 9 9 10 10 12 12 12 22 26 22 14 12 12 14 13 14 14 18 25 28 28 25 19
7 8 8 7 6 5 4 3 2 1 1 2 4 5 5 6 7 8 8 9 9 10 10 11 11 12 15 25 27 27 19 12 12 13 14 14 15 20 13 20 26 22 28
7 8 7 6 5 4 3 3 2 2 3 4 5 5 5 6 7 7 8 8 8 9 10 11 12 12 15 25 27 28 15 11 12 13 14 14 13 14 21 18 17 16 17
7 7 6 6 5 4 3 3 2 2 3 4 5 5 5 6 7 8 8 8 8 10 10 11 12 13 15 23 27 27 12 11 13 13 13 15 13 25 31 22 20 20 17
6 6 6 6 5 4 3 3 2 3 4 5 5 6 6 6 7 8 8 7 8 9 11 12 11 11 13 21 26 28 12 13 13 12 11 18 23 28 31 21 17 19 18
6 6 6 5 4 3 3 2 2 3 4 5 5 6 6 7 8 7 6 8 9 10 10 13 11 10 13 19 25 28 15 13 14 13 11 11 26 30 32 29 15 22 25
5 6 5 4 3 3 2 1 3 4 4 5 6 6 7 7 8 7 8 8 8 11 11 12 12 8 9 16 21 28 26 24 16 13 12 13 25 30 31 23 25 32 25
5 4 5 4 3 2 1 2 4 4 5 5 6 7 8 7 7 8 9 8 7 8 10 10 11 10 7 11 23 26 28 29 18 13 24 23 27 27 18 23 30 24 13
4 4 5 4 2 1 1 3 4 5 5 6 7 7 7 8 6 5 6 7 7 9 10 10 11 11 11 9 10 12 14 18 16 14 14 20 24 20 21 20 16 12 12
4 4 4 3 2 2 3 4 4 4 5 7 7 7 7 7 7 6 5 8 7 10 14 10 10 12 12 16 27 22 15 15 16 18 7 7 10 10 11 11 11 12 13
5 4 3 1 2 3 4 5 5 5 6 7 7 5 6 6 7 8 9 13 15 21 23 22 19 15 20 28 29 29 29 29 31 20 11 10 10 12 13 14 14 13 13
Wind_Direction
33 24 26 24 29 27 27 28 35 28 46 69 73 71 18 349 350 336 313 308 302 289 264 270 280 280 272 278 276 272 276 275 273 277 279 271 258 254 255 252 252 252 250
54 36 31 29 32 33 32 36 36 34 38 58 77 88 87 58 46 34 34 28 27 21 15 353 332 321 309 306 302 293 287 284 262 257 282 284 264 244 246 248 247 249 250
104 73 51 40 36 36 34 41 38 38 37 41 55 53 50 42 31 25 26 24 33 34 30 23 14 2 357 340 329 318 306 305 295 250 267 288 287 279 250 245 246 246 246
119 97 77 58 45 39 39 47 48 46 41 46 60 64 63 56 26 11 13 15 23 25 19 13 7 360 356 350 342 343 328 319 317 309 270 276 292 297 296 248 249 256 254
131 107 90 81 64 53 54 55 59 54 48 51 56 64 63 55 33 24 23 19 14 16 14 8 2 355 347 339 333 333 331 323 315 315 312 309 305 297 301 301 297 281 270
137 111 96 87 74 62 59 61 66 57 48 53 52 56 54 41 34 24 17 10 3 3 8 360 354 346 341 335 329 325 321 315 309 308 306 308 305 309 304 301 303 298 291
152 130 109 93 87 77 69 67 71 61 51 54 50 44 43 40 35 21 12 7 0 354 357 353 347 344 338 333 329 323 318 311 311 308 306 303 297 297 298 298 301 301 297
164 141 120 111 106 93 77 72 72 64 54 56 52 43 42 40 30 19 10 3 352 340 346 344 341 338 336 334 331 324 319 317 310 308 308 307 302 296 293 292 301 303 302
166 143 121 116 108 93 81 80 80 70 57 57 60 45 35 33 22 11 4 355 346 343 342 336 337 337 336 335 332 328 324 320 313 314 311 309 307 300 292 288 292 299 306
161 141 127 119 104 95 87 75 74 73 63 56 52 47 28 21 11 7 2 354 345 341 338 341 341 339 337 337 332 330 326 325 325 326 318 312 308 303 298 297 297 291 292
168 149 134 122 111 95 80 73 68 65 56 52 47 37 22 10 3 2 356 348 341 339 342 343 342 340 338 336 331 328 330 331 327 322 317 313 311 311 317 313 309 302 296
162 143 136 126 108 91 79 72 64 59 51 49 44 32 15 4 0 354 348 343 339 338 340 341 338 335 333 327 321 322 328 323 322 323 323 324 326 322 320 312 305 296 291
147 139 135 123 107 95 83 70 59 53 49 49 41 25 9 2 352 344 342 344 343 340 341 338 333 329 326 321 315 318 318 314 313 322 327 323 318 311 307 302 296 288 299
154 147 135 120 112 101 89 78 58 45 48 45 35 19 1 349 338 333 336 337 335 334 335 332 328 326 325 320 324 325 320 314 310 314 313 313 312 310 308 304 296 301 301
156 151 141 133 125 110 95 80 61 44 45 39 24 3 344 336 331 331 332 332 334 336 329 327 326 326 324 326 328 324 320 316 315 316 309 308 313 314 315 317 316 312 307
164 152 143 140 135 129 117 102 81 44 37 27 4 351 345 337 334 333 334 334 333 328 324 322 323 324 327 325 327 326 318 315 317 318 316 311 309 312 319 316 313 312 310
165 155 152 148 146 146 141 134 104 39 21 13 1 348 339 334 333 333 333 330 325 321 321 321 321 318 316 323 326 323 321 315 313 310 310 312 312 315 303 305 311 310 308
156 151 147 143 141 134 133 129 93 33 14 4 344 333 334 330 324 323 322 318 314 317 318 318 314 311 314 322 322 321 321 310 304 303 303 304 305 307 312 312 313 307 305
153 148 144 135 130 131 132 122 72 23 4 340 327 325 324 321 324 322 313 309 313 317 315 311 308 309 312 318 320 323 315 308 304 301 303 309 309 311 320 323 316 312 309
123 123 120 124 133 136 131 111 48 2 335 318 312 311 317 319 312 301 296 303 311 309 309 307 305 303 305 311 321 324 314 310 308 306 304 310 314 317 323 322 317 314 311
117 122 129 136 143 133 111 80 359 319 304 304 308 315 315 304 291 288 295 305 307 307 306 305 305 299 302 314 321 322 321 314 313 314 312 309 317 323 326 326 320 311 313
130 133 134 134 125 110 99 7 298 290 299 309 312 306 298 295 303 300 300 301 303 308 307 307 306 299 299 315 319 322 322 321 317 314 311 313 323 329 329 328 319 319 322
150 136 133 129 121 117 142 277 284 304 316 314 304 296 294 288 289 293 301 306 303 302 304 305 306 310 310 315 321 321 321 322 320 311 313 325 331 331 329 321 323 324 317
152 137 136 147 171 204 257 276 297 312 311 300 294 293 293 296 290 284 292 299 299 298 300 304 311 316 317 315 313 314 317 320 319 314 319 330 330 328 323 322 320 314 307
152 145 147 165 210 287 308 305 304 304 297 290 288 291 289 296 302 295 285 296 283 295 307 310 315 317 318 316 321 325 322 322 320 325 323 321 323 321 318 318 317 314 311
143 138 144 176 288 310 307 305 302 296 290 293 292 290 299 301 302 304 304 302 308 312 314 315 316 315 314 318 323 325 327 331 331 331 325 322 320 320 321 321 319 313 309